Location: Unspecified
(58.7730°N, 5.8460°E)
Time: 03:39:59
(UTC+02:00)

Resurs 1-4 Rocket - Visible Passes

Search period start: 04 July 2015 00:00
Search period end: 14 July 2015 00:00
Orbit: 801 x 814 km, 98.4° (Epoch: 02 July)

Date Brightness Start Highest point End Pass type
(mag) Time Alt. Az. Time Alt. Az. Time Alt. Az.
04 Jul 4.8 03:18:52 10° ENE 03:20:32 12° ENE 03:22:26 10° E visible
08 Jul 4.8 03:20:35 10° NE 03:22:29 12° ENE 03:24:37 10° E visible
12 Jul 4.7 03:22:21 10° NE 03:24:27 12° ENE 03:26:45 10° ESE visible
